Temperature
18 18 18 18 18 18 18 18 18 18 18 18 18 18 18 18 18 18 18 18 18 18 17 17 17 17 17 17 17 17 17 16 16 16 16 16 16 16 16 16 16 16 16
18 18 18 18 18 18 18 18 18 18 18 18 18 18 18 18 18 18 18 18 17 17 17 17 17 17 17 17 17 17 17 16 16 16 16 16 16 16 16 16 16 16 16
18 18 18 18 18 18 18 18 18 18 18 18 18 18 18 18 18 17 17 17 17 17 17 17 17 17 17 17 17 17 16 16 16 16 16 16 16 16 16 16 16 16 16
18 18 18 18 18 18 18 18 18 18 18 18 18 18 18 18 18 17 17 17 17 17 17 17 17 17 17 17 17 16 16 16 16 16 16 16 16 16 16 16 16 16 16
18 18 18 18 18 18 18 18 17 18 18 18 18 18 18 18 18 18 17 17 17 17 17 17 17 17 17 17 17 16 16 16 16 16 16 16 16 16 16 16 16 16 16
18 18 18 18 18 18 17 17 17 17 18 18 18 18 18 18 18 18 17 17 17 17 17 17 17 17 16 16 16 16 16 16 16 16 16 16 16 16 16 16 16 16 16
18 18 18 18 18 17 17 17 17 17 18 18 18 18 18 18 18 18 18 17 17 17 17 17 16 16 16 16 16 16 16 16 16 16 16 16 16 16 16 16 16 16 15
18 18 18 18 18 17 17 17 17 17 18 18 18 18 18 18 18 18 18 17 17 17 17 17 16 16 16 16 16 16 16 16 16 16 16 16 15 15 15 15 15 15 15
18 18 18 17 17 17 17 17 17 17 17 18 18 18 18 18 18 18 18 18 17 17 17 17 17 16 16 16 16 16 16 16 16 15 15 15 15 15 15 15 15 15 15
18 17 18 17 17 17 17 17 17 17 17 17 18 18 18 18 18 18 18 18 17 17 17 17 16 16 16 16 16 16 15 15 15 15 15 15 15 15 15 15 15 15 15
17 17 17 17 17 17 17 17 17 17 17 17 18 18 18 18 18 18 18 17 17 17 17 17 17 16 16 16 16 15 15 15 15 15 15 15 15 15 15 15 15 15 15
17 17 17 17 17 17 17 17 17 17 17 17 17 17 18 18 18 18 18 18 18 17 17 17 17 16 16 16 15 15 15 15 15 15 15 15 15 15 15 15 15 15 15
17 17 17 17 17 17 17 17 17 17 17 17 17 17 17 18 18 18 18 18 18 17 17 17 17 16 16 16 16 16 15 15 15 15 15 15 15 15 15 14 14 14 14
17 17 17 17 17 17 16 17 17 16 16 17 17 17 17 17 17 18 18 18 18 17 17 17 17 17 16 16 16 15 15 15 15 15 15 15 15 15 14 14 14 14 14
17 17 17 17 17 17 16 16 16 16 16 16 16 17 17 17 17 17 17 17 17 17 17 17 17 17 16 16 16 15 15 15 15 15 15 15 15 15 15 14 14 14 14
17 17 17 17 16 16 16 16 16 16 16 16 16 16 16 16 17 17 17 17 17 17 17 17 17 17 16 16 16 15 15 15 15 15 15 15 15 15 15 15 14 14 14
17 17 17 16 16 16 16 16 16 16 16 16 16 16 16 16 16 16 16 17 17 17 17 17 17 16 16 16 16 15 15 15 15 15 15 15 15 15 15 14 14 14 14
17 17 17 16 16 16 16 16 16 16 16 16 16 16 16 16 16 16 16 16 16 16 16 16 16 16 16 16 16 15 15 15 15 15 15 15 15 15 15 15 14 14 14
17 17 17 16 16 16 16 16 16 16 16 16 16 16 16 16 16 16 16 16 16 16 16 16 16 16 16 16 15 15 15 15 15 15 15 15 15 15 15 15 14 14 14
16 16 16 16 16 16 16 16 16 16 16 16 15 16 15 15 16 16 16 16 16 16 16 16 16 16 16 16 15 15 15 15 15 15 15 15 15 15 15 14 14 14 14
16 16 16 16 16 16 16 16 16 16 16 16 15 15 15 15 15 15 15 15 15 15 15 15 15 15 15 15 15 15 15 15 15 15 15 15 14 14 14 14 14 14 14
16 16 16 16 16 16 16 16 16 16 16 16 15 15 15 15 15 15 15 15 15 15 15 15 15 15 15 15 15 15 14 14 14 14 14 14 14 14 14 14 14 14 14
16 16 16 16 16 16 16 16 16 16 15 15 15 15 15 15 15 16 16 16 15 15 15 15 15 15 15 15 14 14 14 14 14 14 14 14 14 14 14 13 14 14 13
16 16 16 16 16 16 16 16 16 16 15 15 15 15 15 15 15 15 15 15 15 15 15 15 15 15 15 14 14 14 13 13 13 14 13 13 13 13 13 13 13 13 13
16 16 16 16 16 16 16 16 16 16 16 15 15 15 15 15 15 15 15 15 15 15 14 14 14 14 14 14 14 13 13 13 13 13 13 12 12 12 12 12 12 12 12
16 16 16 16 16 16 16 16 16 16 15 15 15 15 15 15 15 15 14 14 14 14 14 14 14 14 14 13 13 13 13 12 12 12 12 12 12 12 12 12 12 12 12
Wind_Speed
5 5 4 5 6 7 5 2 2 3 2 2 1 3 4 8 13 14 13 14 13 12 11 10 9 9 8 8 8 8 7 6 7 7 7 7 6 6 6 6 6 6 5
6 5 4 2 3 5 5 3 4 3 1 1 2 3 3 6 10 14 14 12 12 12 11 10 9 8 8 7 7 7 7 6 7 7 7 7 6 6 6 6 6 6 5
8 5 4 3 3 6 5 2 3 3 2 3 2 2 3 5 7 12 13 12 11 11 10 10 9 9 8 7 7 7 7 7 7 7 7 7 7 6 6 6 6 6 6
9 5 4 4 6 6 4 2 2 2 1 2 2 2 3 3 5 8 10 12 12 11 11 10 9 9 8 8 7 8 8 8 8 8 8 8 7 7 7 8 8 8 8
9 6 4 4 6 4 3 3 3 2 1 1 2 2 2 3 3 4 6 9 11 12 12 12 11 10 9 8 8 7 8 8 8 8 9 9 9 9 9 9 9 9 9
9 6 5 5 4 3 3 2 4 2 1 1 1 3 2 3 3 2 3 6 9 10 12 12 12 10 10 9 8 7 7 8 8 8 8 8 9 9 10 10 10 10 10
9 5 4 5 3 4 4 5 4 4 2 1 1 2 2 3 4 3 2 3 5 7 9 12 11 10 10 9 8 7 6 6 7 8 8 8 9 9 9 9 10 11 11
9 7 5 5 4 4 4 4 3 2 3 3 1 2 2 1 1 4 3 4 4 4 6 9 9 10 11 10 8 8 7 6 6 6 6 6 7 7 8 8 10 11 11
9 6 7 4 5 5 5 5 5 4 2 2 2 0 1 2 2 1 2 3 3 2 2 6 9 9 9 10 10 8 7 6 6 6 5 5 5 5 6 7 8 10 11
8 8 7 5 5 4 6 6 6 3 3 3 2 1 1 2 1 2 1 3 4 4 3 3 6 9 10 10 11 10 9 8 7 5 4 4 5 5 6 6 7 8 10
7 8 8 6 5 4 6 5 5 3 2 3 2 3 2 1 2 3 3 3 3 3 4 3 4 7 9 12 12 11 11 9 7 6 5 4 4 5 6 7 8 8 9
6 8 8 6 5 4 5 5 4 4 2 1 0 1 2 2 2 2 2 3 3 3 4 3 3 5 8 11 11 14 14 11 9 8 6 6 5 5 6 7 8 8 9
7 8 8 7 6 5 5 5 5 4 4 2 1 1 1 1 1 0 1 1 2 2 3 3 4 5 6 10 12 15 14 13 11 10 9 8 8 7 7 8 9 10 10
8 9 8 8 7 7 7 5 5 5 4 3 4 2 2 2 1 1 1 1 1 2 3 4 3 5 5 10 13 14 12 14 13 12 11 10 9 9 9 10 10 10 11
8 10 9 9 7 7 6 6 4 5 5 5 4 4 2 2 1 1 1 1 1 1 2 3 3 4 6 8 13 12 10 14 16 15 14 13 12 12 12 11 11 12 12
8 10 10 9 8 8 7 6 5 5 5 5 3 4 3 2 1 1 1 1 1 1 1 1 2 3 4 5 11 9 8 13 18 19 18 17 16 16 15 15 14 14 14
9 10 9 9 8 8 8 7 5 7 6 5 4 4 3 2 1 2 1 1 1 1 1 1 1 3 3 2 4 7 8 10 14 21 22 22 21 20 19 18 18 17 17
9 9 9 9 9 9 8 8 7 8 7 6 5 5 5 4 3 2 2 2 1 0 1 2 1 2 3 5 5 5 8 10 11 15 22 24 24 23 22 21 21 21 21
9 9 8 9 8 8 8 8 7 6 7 7 6 6 6 5 4 3 3 2 2 3 3 3 3 3 3 4 5 6 7 7 12 12 17 23 25 25 25 25 25 24 24
9 9 9 9 8 8 8 8 7 6 6 6 6 6 6 6 6 5 4 4 3 3 2 3 4 4 4 4 4 4 5 5 6 8 8 11 18 25 27 27 27 26 26
11 9 9 9 8 8 9 9 8 8 7 6 6 6 6 6 6 5 5 3 4 4 4 4 5 4 3 2 2 3 4 4 4 4 4 5 6 8 13 20 24 26 26
10 10 9 9 10 10 12 13 10 8 7 7 6 6 6 7 7 7 6 4 2 4 4 3 4 4 4 3 2 3 4 4 4 3 3 6 5 6 6 12 16 20 23
10 10 10 10 9 9 11 13 12 7 6 7 7 7 8 9 11 8 9 10 9 9 8 5 6 6 5 4 4 5 5 5 6 5 6 7 6 7 8 15 15 15 18
10 10 10 10 9 10 13 13 13 8 6 7 7 7 7 6 7 7 8 8 8 8 10 9 8 8 7 4 4 5 6 7 7 7 6 7 7 7 8 9 14 16 18
10 10 9 9 9 9 13 14 13 7 7 7 7 8 7 7 7 7 6 6 6 6 9 10 10 9 9 8 5 3 5 6 8 7 5 5 6 7 6 6 11 16 17
9 9 9 9 9 9 13 15 14 8 7 7 7 7 8 8 7 8 6 5 6 5 5 5 5 8 8 10 11 8 6 7 7 6 5 4 6 6 6 6 5 8 11
Wind_Direction
139 130 129 150 152 144 146 148 117 104 95 106 114 91 76 92 116 124 135 143 143 144 146 148 150 152 153 152 155 158 159 157 155 156 153 151 153 155 158 158 158 156 152
128 128 131 137 124 128 127 136 127 112 108 100 87 98 89 93 116 125 138 147 151 153 157 159 162 165 165 165 169 174 173 170 168 166 166 167 168 170 174 177 176 170 169
136 143 138 147 123 119 128 139 128 136 170 147 125 108 101 99 117 132 144 152 160 164 166 168 172 174 175 177 181 185 186 183 181 182 183 184 185 187 191 194 194 189 189
150 156 147 151 140 140 146 142 164 157 120 127 131 128 123 121 134 140 149 156 159 167 174 178 180 184 186 188 193 195 196 196 197 198 199 202 203 204 205 207 207 203 203
156 159 148 137 157 155 158 177 142 138 144 137 169 158 146 142 132 151 146 150 158 164 168 178 184 189 193 194 195 196 199 202 205 206 208 211 213 215 216 216 217 215 214
163 167 147 151 178 154 144 117 121 118 150 212 218 141 151 154 154 148 163 154 160 167 169 169 178 188 193 190 191 192 195 198 202 207 212 215 216 218 222 224 224 224 224
164 170 152 154 175 149 154 160 153 168 201 181 185 152 186 177 158 158 170 155 161 167 157 164 177 176 178 184 184 184 189 196 201 209 216 220 220 220 224 227 228 228 228
166 175 155 163 165 153 163 167 160 189 198 180 203 175 167 156 215 172 168 168 160 171 169 171 168 169 169 165 176 181 182 186 191 196 203 209 215 219 226 231 235 236 237
172 175 156 173 165 169 169 179 181 195 205 191 199 217 150 171 174 157 176 144 146 158 174 159 165 162 163 159 160 173 181 182 183 187 193 199 209 217 227 236 241 243 243
173 168 164 176 177 176 162 190 183 184 198 213 183 174 160 118 138 145 191 160 169 171 184 181 160 164 165 156 160 170 180 185 188 190 199 210 222 227 235 244 251 253 252
176 171 168 171 180 177 172 179 151 187 203 220 197 186 175 167 228 177 180 179 185 172 177 180 162 166 164 159 162 171 175 179 184 191 198 212 229 240 245 250 256 259 259
180 175 171 166 176 182 163 154 162 185 212 215 310 206 170 184 216 209 180 187 184 176 172 166 162 168 176 172 174 171 177 182 189 197 208 223 238 249 253 252 259 264 265
177 178 173 167 181 170 160 163 179 192 184 178 237 276 277 237 191 235 158 193 163 166 170 185 177 174 184 153 158 172 184 190 199 207 216 227 238 247 253 257 262 265 267
176 168 165 172 177 170 175 168 183 191 176 181 218 222 310 303 339 247 230 195 188 195 189 187 168 170 168 155 168 179 191 198 205 212 219 227 237 245 253 259 264 267 268
167 164 167 174 177 174 171 166 197 190 161 183 213 199 236 259 248 280 318 289 251 237 215 185 171 170 164 162 172 188 194 204 211 217 223 229 237 244 250 256 261 265 267
160 162 170 174 174 173 172 176 193 174 170 190 206 193 207 251 248 241 258 281 312 309 281 178 182 153 149 169 177 200 219 217 218 223 227 231 236 241 247 251 255 259 262
161 167 172 173 173 174 175 184 195 172 181 192 202 178 185 267 284 284 232 221 257 295 287 281 161 138 145 164 179 227 241 227 226 230 229 231 235 239 244 248 252 256 259
167 169 172 171 175 177 178 187 203 182 181 192 201 186 187 208 200 278 299 258 226 163 242 289 271 191 196 196 202 220 244 251 248 241 230 230 234 238 242 246 250 254 257
171 172 173 176 183 179 179 189 201 191 186 191 191 191 194 203 199 211 237 265 258 239 200 240 261 242 221 213 210 227 244 253 264 260 238 232 234 239 242 245 248 251 254
175 176 177 182 186 183 182 188 194 198 195 195 194 194 200 202 198 209 226 232 257 273 256 246 259 254 239 224 204 226 255 250 255 268 267 249 237 239 242 245 249 252 253
183 179 179 185 189 193 194 190 191 198 199 205 203 202 208 205 201 199 225 222 235 236 247 243 249 254 252 246 239 247 266 279 270 266 271 269 255 244 248 251 251 253 252
185 181 183 190 197 206 198 188 191 202 193 202 208 209 212 203 200 200 217 229 237 253 268 280 282 280 286 299 308 296 294 298 291 296 312 296 293 281 266 264 256 248 247
188 186 188 195 201 205 187 181 189 203 203 203 210 213 227 226 202 205 214 225 235 236 230 243 265 275 285 295 312 305 296 291 283 288 299 287 282 279 276 283 280 267 252
191 192 194 197 199 199 187 182 185 204 222 219 214 214 224 248 230 207 213 219 222 228 226 229 239 251 260 271 272 275 280 281 273 267 260 271 275 273 281 285 283 278 268
193 195 195 198 201 196 187 183 181 204 220 234 235 225 218 223 226 217 224 235 240 246 242 232 224 231 239 247 248 267 273 276 280 278 270 271 280 283 281 281 285 286 279
194 197 199 198 200 196 187 185 185 202 214 224 231 230 223 219 205 197 213 228 241 252 269 268 243 247 245 246 239 229 243 258 270 279 277 283 290 300 293 282 285 296 287
Height
1550 1552 1553 1556 1557 1559 1561 1563 1564 1566 1567 1568 1569 1571 1571 1572 1572 1573 1574 1575 1576 1577 1578 1579 1580 1581 1581 1583 1583 1584 1586 1587 1588 1589 1590 1591 1592 1593 1594 1595 1595 1596 1597
1549 1551 1553 1556 1558 1559 1561 1563 1565 1566 1568 1569 1570 1571 1572 1573 1573 1574 1575 1576 1577 1577 1578 1579 1580 1581 1582 1583 1584 1584 1585 1586 1587 1589 1590 1591 1591 1592 1593 1594 1595 1596 1597
1548 1551 1553 1555 1557 1559 1561 1563 1565 1566 1568 1569 1571 1572 1573 1574 1574 1575 1575 1576 1577 1578 1578 1579 1580 1581 1582 1582 1583 1584 1585 1586 1587 1588 1589 1590 1591 1592 1592 1593 1594 1595 1596
1547 1550 1552 1555 1557 1558 1560 1562 1564 1566 1568 1569 1570 1572 1573 1574 1575 1575 1576 1576 1577 1577 1578 1579 1580 1580 1581 1582 1583 1583 1584 1585 1586 1587 1588 1589 1590 1591 1591 1592 1593 1594 1595
1546 1549 1551 1553 1556 1558 1560 1562 1564 1565 1567 1569 1570 1571 1572 1573 1574 1575 1576 1576 1577 1577 1577 1578 1579 1580 1581 1582 1582 1583 1583 1584 1585 1586 1587 1587 1588 1589 1590 1590 1591 1592 1593
1545 1548 1550 1552 1555 1557 1559 1561 1563 1565 1566 1568 1570 1571 1572 1573 1574 1574 1575 1576 1576 1577 1577 1578 1579 1579 1580 1581 1581 1582 1582 1583 1583 1584 1585 1586 1586 1587 1588 1589 1589 1590 1591
1543 1546 1549 1551 1553 1556 1558 1560 1562 1564 1566 1567 1569 1570 1571 1572 1573 1573 1574 1575 1576 1577 1577 1578 1578 1579 1579 1580 1580 1581 1581 1581 1582 1582 1583 1584 1584 1585 1586 1586 1587 1588 1588
1541 1544 1547 1549 1552 1554 1556 1559 1560 1563 1565 1566 1568 1569 1570 1572 1572 1573 1573 1574 1575 1576 1577 1577 1578 1578 1578 1578 1579 1579 1580 1580 1580 1581 1581 1582 1582 1583 1583 1584 1584 1585 1586
1539 1542 1545 1547 1550 1552 1554 1557 1559 1561 1563 1565 1566 1568 1569 1569 1571 1572 1573 1574 1575 1575 1576 1577 1577 1577 1577 1577 1577 1578 1578 1578 1579 1579 1579 1580 1580 1580 1581 1581 1581 1582 1582
1537 1540 1542 1545 1548 1550 1553 1555 1557 1559 1561 1563 1564 1566 1567 1568 1570 1571 1573 1573 1574 1575 1575 1576 1576 1576 1576 1576 1576 1576 1577 1577 1577 1577 1577 1577 1578 1578 1578 1578 1578 1579 1579
1534 1537 1540 1543 1546 1548 1551 1553 1555 1557 1559 1561 1562 1564 1566 1567 1568 1569 1570 1572 1573 1573 1574 1575 1575 1575 1575 1575 1575 1575 1575 1575 1575 1575 1575 1575 1575 1575 1575 1575 1575 1575 1575
1531 1535 1538 1541 1544 1546 1548 1551 1553 1555 1556 1558 1560 1562 1564 1565 1567 1568 1569 1569 1570 1572 1572 1573 1574 1574 1574 1574 1574 1574 1574 1574 1574 1573 1573 1573 1573 1573 1572 1572 1572 1572 1572
1528 1532 1535 1538 1541 1544 1546 1548 1551 1553 1554 1556 1558 1560 1562 1563 1565 1566 1567 1568 1569 1570 1571 1571 1572 1572 1573 1572 1572 1572 1572 1572 1572 1571 1571 1570 1570 1570 1569 1569 1569 1568 1568
1526 1529 1533 1536 1539 1541 1544 1546 1548 1550 1552 1554 1556 1558 1559 1561 1563 1564 1565 1567 1567 1568 1569 1569 1570 1570 1571 1571 1570 1571 1570 1570 1569 1569 1568 1568 1568 1567 1567 1566 1566 1565 1565
1524 1527 1530 1533 1536 1539 1542 1544 1547 1548 1550 1552 1554 1556 1558 1560 1561 1562 1563 1565 1566 1566 1567 1567 1568 1568 1569 1569 1569 1569 1568 1568 1567 1567 1566 1566 1565 1564 1564 1563 1562 1562 1561
1522 1524 1527 1531 1534 1537 1539 1542 1544 1546 1548 1550 1552 1554 1556 1558 1559 1560 1561 1562 1563 1565 1565 1565 1566 1566 1567 1567 1566 1566 1566 1565 1564 1564 1564 1563 1562 1561 1561 1560 1559 1558 1557
1519 1522 1525 1528 1531 1534 1537 1540 1542 1544 1546 1548 1550 1552 1553 1555 1556 1558 1559 1560 1561 1562 1563 1564 1564 1564 1565 1565 1564 1564 1563 1562 1562 1561 1560 1560 1559 1558 1557 1556 1555 1554 1553
1516 1519 1523 1526 1529 1532 1534 1537 1540 1542 1544 1546 1548 1549 1551 1553 1554 1556 1557 1558 1559 1560 1561 1561 1562 1562 1562 1562 1561 1561 1560 1560 1559 1558 1557 1556 1556 1555 1554 1553 1551 1550 1549
1514 1517 1520 1524 1527 1530 1532 1535 1537 1540 1542 1544 1546 1547 1549 1550 1552 1553 1554 1556 1557 1558 1558 1559 1559 1559 1559 1559 1558 1558 1557 1556 1556 1555 1554 1553 1552 1551 1549 1548 1547 1546 1544
1512 1515 1518 1522 1525 1527 1530 1532 1535 1537 1539 1541 1543 1545 1546 1548 1549 1550 1552 1553 1554 1555 1555 1556 1556 1556 1556 1556 1555 1554 1553 1553 1552 1551 1550 1549 1547 1546 1545 1543 1542 1541 1539
1510 1513 1516 1519 1522 1525 1528 1530 1532 1534 1537 1539 1541 1542 1544 1545 1546 1547 1549 1550 1551 1551 1552 1553 1553 1553 1553 1553 1552 1551 1550 1549 1548 1548 1546 1545 1543 1542 1540 1538 1537 1535 1534
1507 1510 1513 1516 1519 1523 1525 1527 1529 1532 1534 1536 1537 1539 1540 1542 1543 1544 1545 1546 1547 1548 1548 1549 1549 1549 1549 1548 1548 1547 1546 1545 1543 1543 1541 1539 1538 1536 1535 1533 1532 1530 1528
1505 1508 1510 1513 1516 1519 1522 1524 1527 1529 1531 1532 1534 1535 1537 1538 1539 1540 1541 1542 1543 1543 1544 1544 1544 1544 1544 1544 1543 1542 1541 1539 1538 1537 1536 1532 1532 1530 1529 1528 1527 1524 1522
1501 1504 1507 1510 1513 1515 1518 1521 1523 1525 1527 1529 1530 1531 1532 1534 1535 1536 1536 1537 1537 1538 1539 1539 1539 1539 1539 1538 1537 1537 1535 1534 1532 1531 1530 1527 1525 1524 1522 1521 1520 1518 1516
1497 1500 1503 1506 1508 1511 1514 1516 1519 1521 1522 1524 1526 1527 1528 1529 1530 1532 1532 1533 1533 1533 1534 1534 1534 1533 1533 1533 1532 1531 1530 1528 1525 1525 1525 1522 1519 1517 1515 1514 1513 1511 1509
1493 1496 1499 1501 1504 1506 1509 1511 1514 1516 1517 1519 1521 1522 1523 1524 1525 1526 1527 1527 1527 1528 1529 1529 1529 1528 1527 1527 1526 1525 1524 1523 1520 1519 1518 1517 1514 1512 1508 1507 1506 1504 1502